• In Belgien
  • Länderverzeichnis
  • Für 7 Tage
  • Wassertemperatur
  • Satellitenkarten
  • Wetterkarte
  • Widgets
  • user-avatar
    Anmelden

    Stündliche Wetter Julara

    Heute, 26 Juli, Mittwoch

    Zeit Temperatur Niederschläge Wind Luftdruck Luftfeuchtigkeit
    00:00 +19°C° 0 mm 2 m/S 722 mmHg 26%
    01:00 +18°C° 0 mm 2 m/S 722 mmHg 27%
    02:00 +18°C° 0 mm 2 m/S 722 mmHg 27%
    03:00 +17°C° 0 mm 2 m/S 721 mmHg 28%
    04:00 +16°C° 0 mm 2 m/S 721 mmHg 29%
    05:00 +16°C° 0 mm 2 m/S 721 mmHg 30%
    06:00 +15°C° 0 mm 1 m/S 721 mmHg 30%
    07:00 +17°C° 0 mm 2 m/S 722 mmHg 27%
    08:00 +19°C° 0 mm 2 m/S 722 mmHg 24%
    09:00 +21°C° 0 mm 2 m/S 723 mmHg 20%
    10:00 +23°C° 0 mm 2 m/S 723 mmHg 19%
    11:00 +25°C° 0 mm 3 m/S 723 mmHg 17%
    12:00 +27°C° 0 mm 3 m/S 723 mmHg 15%
    13:00 +27°C° 0 mm 4 m/S 722 mmHg 15%
    14:00 +28°C° 0 mm 4 m/S 722 mmHg 15%
    15:00 +29°C° 0 mm 5 m/S 721 mmHg 14%
    16:00 +27°C° 0 mm 4 m/S 721 mmHg 16%
    17:00 +25°C° 0 mm 3 m/S 721 mmHg 18%
    18:00 +24°C° 0 mm 2 m/S 721 mmHg 20%
    19:00 +22°C° 0 mm 3 m/S 721 mmHg 20%
    20:00 +21°C° 0 mm 3 m/S 722 mmHg 21%
    21:00 +21°C° 0 mm 4 m/S 722 mmHg 22%
    22:00 +20°C° 0 mm 4 m/S 722 mmHg 23%
    23:00 +19°C° 0 mm 4 m/S 722 mmHg 24%

    Morgen, 27 Juli, Donnerstag

    Zeit Temperatur Niederschläge Wind Luftdruck Luftfeuchtigkeit
    00:00 +18°C° 0 mm 4 m/S 722 mmHg 25%
    01:00 +18°C° 0 mm 4 m/S 722 mmHg 25%
    02:00 +17°C° 0 mm 4 m/S 722 mmHg 26%
    03:00 +16°C° 0 mm 3 m/S 722 mmHg 27%
    04:00 +16°C° 0 mm 3 m/S 722 mmHg 27%
    05:00 +14°C° 0 mm 3 m/S 722 mmHg 28%
    06:00 +14°C° 0 mm 3 m/S 722 mmHg 29%
    07:00 +16°C° 0 mm 3 m/S 723 mmHg 28%
    08:00 +18°C° 0 mm 3 m/S 723 mmHg 26%
    09:00 +19°C° 0 mm 2 m/S 724 mmHg 24%
    10:00 +21°C° 0 mm 3 m/S 724 mmHg 22%
    11:00 +24°C° 0 mm 3 m/S 723 mmHg 20%
    12:00 +26°C° 0 mm 4 m/S 723 mmHg 17%
    13:00 +26°C° 0 mm 3 m/S 723 mmHg 16%
    14:00 +27°C° 0 mm 3 m/S 722 mmHg 15%
    15:00 +27°C° 0 mm 2 m/S 721 mmHg 14%
    16:00 +26°C° 0 mm 2 m/S 721 mmHg 16%
    17:00 +24°C° 0 mm 2 m/S 721 mmHg 18%
    18:00 +22°C° 0 mm 1 m/S 721 mmHg 20%
    19:00 +21°C° 0 mm 2 m/S 721 mmHg 20%
    20:00 +20°C° 0 mm 2 m/S 722 mmHg 20%
    21:00 +20°C° 0 mm 2 m/S 722 mmHg 20%
    22:00 +19°C° 0 mm 3 m/S 722 mmHg 21%
    23:00 +19°C° 0 mm 3 m/S 722 mmHg 21%

    übermorgen, 28 Juli, Freitag

    Zeit Temperatur Niederschläge Wind Luftdruck Luftfeuchtigkeit
    00:00 +18°C° 0 mm 3 m/S 722 mmHg 22%
    01:00 +17°C° 0 mm 3 m/S 722 mmHg 23%
    02:00 +17°C° 0 mm 3 m/S 722 mmHg 24%
    03:00 +16°C° 0 mm 3 m/S 721 mmHg 25%
    04:00 +14°C° 0 mm 3 m/S 721 mmHg 26%
    05:00 +14°C° 0 mm 3 m/S 721 mmHg 27%
    06:00 +14°C° 0 mm 2 m/S 721 mmHg 28%
    07:00 +16°C° 0 mm 3 m/S 722 mmHg 26%
    08:00 +18°C° 0 mm 3 m/S 722 mmHg 25%
    09:00 +19°C° 0 mm 3 m/S 723 mmHg 23%
    10:00 +21°C° 0 mm 3 m/S 723 mmHg 21%
    11:00 +23°C° 0 mm 4 m/S 722 mmHg 19%
    12:00 +26°C° 0 mm 5 m/S 722 mmHg 17%
    13:00 +27°C° 0 mm 4 m/S 721 mmHg 16%
    14:00 +27°C° 0 mm 4 m/S 721 mmHg 15%
    15:00 +28°C° 0 mm 4 m/S 720 mmHg 14%
    16:00 +26°C° 0 mm 4 m/S 720 mmHg 16%
    17:00 +25°C° 0 mm 3 m/S 720 mmHg 17%
    18:00 +23°C° 0 mm 2 m/S 719 mmHg 19%
    19:00 +23°C° 0 mm 2 m/S 720 mmHg 20%
    20:00 +21°C° 0 mm 3 m/S 720 mmHg 20%
    21:00 +20°C° 0 mm 3 m/S 721 mmHg 21%
    22:00 +20°C° 0 mm 3 m/S 720 mmHg 21%
    23:00 +19°C° 0 mm 3 m/S 720 mmHg 22%

    29 Juli, Samstag

    Zeit Temperatur Niederschläge Wind Luftdruck Luftfeuchtigkeit
    00:00 +19°C° 0 mm 3 m/S 720 mmHg 22%
    01:00 +18°C° 0 mm 3 m/S 720 mmHg 23%
    02:00 +18°C° 0 mm 3 m/S 720 mmHg 24%
    03:00 +17°C° 0 mm 4 m/S 719 mmHg 25%
    04:00 +17°C° 0 mm 4 m/S 719 mmHg 26%
    05:00 +15°C° 0 mm 4 m/S 719 mmHg 28%
    06:00 +15°C° 0 mm 4 m/S 719 mmHg 29%
    07:00 +16°C° 0 mm 5 m/S 719 mmHg 27%
    08:00 +19°C° 0 mm 6 m/S 720 mmHg 26%
    09:00 +20°C° 0 mm 6 m/S 720 mmHg 24%
    10:00 +22°C° 0 mm 7 m/S 720 mmHg 22%
    11:00 +26°C° 0 mm 8 m/S 720 mmHg 20%
    12:00 +28°C° 0 mm 8 m/S 719 mmHg 18%
    13:00 +28°C° 0 mm 8 m/S 719 mmHg 17%
    14:00 +29°C° 0 mm 8 m/S 718 mmHg 17%
    15:00 +31°C° 0 mm 8 m/S 717 mmHg 16%
    16:00 +29°C° 0 mm 6 m/S 717 mmHg 18%
    17:00 +27°C° 0 mm 5 m/S 717 mmHg 20%
    18:00 +26°C° 0 mm 4 m/S 717 mmHg 22%
    19:00 +25°C° 0 mm 4 m/S 718 mmHg 25%
    20:00 +22°C° 0 mm 4 m/S 718 mmHg 28%
    21:00 +21°C° 0 mm 4 m/S 719 mmHg 31%
    22:00 +20°C° 0 mm 5 m/S 719 mmHg 39%
    23:00 +19°C° 0 mm 5 m/S 719 mmHg 48%

    30 Juli, Sonntag

    Zeit Temperatur Niederschläge Wind Luftdruck Luftfeuchtigkeit
    00:00 +17°C° 0 mm 5 m/S 719 mmHg 56%
    01:00 +16°C° 0 mm 5 m/S 719 mmHg 56%
    02:00 +15°C° 0 mm 4 m/S 719 mmHg 57%
    03:00 +15°C° 0 mm 4 m/S 718 mmHg 58%
    04:00 +14°C° 0 mm 4 m/S 719 mmHg 56%
    05:00 +14°C° 0 mm 4 m/S 719 mmHg 54%
    06:00 +13°C° 0 mm 3 m/S 720 mmHg 53%
    07:00 +14°C° 0 mm 4 m/S 720 mmHg 48%
    08:00 +15°C° 0 mm 4 m/S 721 mmHg 42%
    09:00 +17°C° 0 mm 4 m/S 721 mmHg 37%
    10:00 +18°C° 0 mm 3 m/S 721 mmHg 35%
    11:00 +19°C° 0 mm 2 m/S 720 mmHg 33%
    12:00 +21°C° 0 mm 1 m/S 720 mmHg 31%
    13:00 +21°C° 0 mm 2 m/S 720 mmHg 30%
    14:00 +23°C° 0 mm 2 m/S 719 mmHg 29%
    15:00 +24°C° 0 mm 3 m/S 719 mmHg 27%
    16:00 +22°C° 0 mm 3 m/S 719 mmHg 26%
    17:00 +21°C° 0 mm 3 m/S 719 mmHg 25%
    18:00 +20°C° 0 mm 4 m/S 719 mmHg 25%
    19:00 +19°C° 0 mm 5 m/S 720 mmHg 25%
    20:00 +17°C° 0 mm 5 m/S 721 mmHg 25%
    21:00 +16°C° 0 mm 6 m/S 721 mmHg 26%
    22:00 +15°C° 0 mm 6 m/S 721 mmHg 29%
    23:00 +14°C° 0 mm 6 m/S 722 mmHg 32%

    31 Juli, Montag

    Zeit Temperatur Niederschläge Wind Luftdruck Luftfeuchtigkeit
    00:00 +13°C° 0 mm 6 m/S 722 mmHg 35%
    01:00 +13°C° 0 mm 6 m/S 722 mmHg 39%
    02:00 +11°C° 0 mm 6 m/S 722 mmHg 44%
    03:00 +10°C° 0 mm 6 m/S 722 mmHg 48%
    04:00 +9°C° 0 mm 5 m/S 722 mmHg 50%
    05:00 +9°C° 0 mm 5 m/S 722 mmHg 52%
    06:00 +8°C° 0 mm 4 m/S 723 mmHg 54%
    07:00 +9°C° 0 mm 5 m/S 723 mmHg 49%
    08:00 +10°C° 0 mm 5 m/S 724 mmHg 44%
    09:00 +11°C° 0 mm 6 m/S 724 mmHg 40%
    10:00 +13°C° 0 mm 6 m/S 724 mmHg 35%
    11:00 +15°C° 0 mm 5 m/S 723 mmHg 30%
    12:00 +16°C° 0 mm 5 m/S 723 mmHg 25%
    13:00 +17°C° 0 mm 5 m/S 722 mmHg 23%
    14:00 +19°C° 0 mm 4 m/S 721 mmHg 21%
    15:00 +20°C° 0 mm 4 m/S 721 mmHg 19%
    16:00 +19°C° 0 mm 4 m/S 721 mmHg 20%
    17:00 +18°C° 0 mm 3 m/S 721 mmHg 22%
    18:00 +17°C° 0 mm 3 m/S 721 mmHg 24%
    19:00 +16°C° 0 mm 3 m/S 721 mmHg 25%
    20:00 +14°C° 0 mm 4 m/S 722 mmHg 26%
    21:00 +14°C° 0 mm 4 m/S 722 mmHg 28%
    22:00 +13°C° 0 mm 5 m/S 722 mmHg 29%
    23:00 +13°C° 0 mm 5 m/S 721 mmHg 31%
    Mehr zeigen